Time,TemperatureF,DewpointF,PressureIn,WindDirection,WindDirectionDegrees,WindSpeedMPH,WindSpeedGustMPH,Humidity,HourlyPrecipIn,Conditions,Clouds,dailyrainin,SoftwareType,DateUTC
2013-12-11 00:01:00,24.2,14.8,30.35,WSW,239,2.0,3.0,67,0.00,,,0.00,VWS V14.01,2013-12-11 05:01:00,
2013-12-11 00:03:00,24.1,15.1,30.35,SSW,213,4.0,4.0,68,0.00,,,0.00,VWS V14.01,2013-12-11 05:03:00,
2013-12-11 00:08:00,24.4,15.0,30.35,SW,227,1.0,8.0,67,0.00,,,0.00,VWS V14.01,2013-12-11 05:08:00,
2013-12-11 00:13:00,24.3,14.9,30.35,WSW,238,2.0,8.0,67,0.00,,,0.00,VWS V14.01,2013-12-11 05:13:00,
2013-12-11 00:18:00,24.2,14.8,30.36,WSW,240,3.0,8.0,67,0.00,,,0.00,VWS V14.01,2013-12-11 05:18:00,
2013-12-11 00:23:00,24.2,14.8,30.36,SW,233,0.0,8.0,67,0.00,,,0.00,VWS V14.01,2013-12-11 05:23:00,
2013-12-11 00:28:00,24.1,15.1,30.36,WSW,245,0.0,8.0,68,0.00,,,0.00,VWS V14.01,2013-12-11 05:28:00,
2013-12-11 00:34:00,24.0,15.0,30.36,SW,229,0.0,5.0,68,0.00,,,0.00,VWS V14.01,2013-12-11 05:34:00,
2013-12-11 00:39:00,23.9,14.9,30.36,SSW,201,0.0,5.0,68,0.00,,,0.00,VWS V14.01,2013-12-11 05:39:00,
2013-12-11 00:44:00,23.7,14.7,30.36,SSW,201,0.0,5.0,68,0.00,,,0.00,VWS V14.01,2013-12-11 05:44:00,
2013-12-11 00:49:00,23.5,14.8,30.37,WSW,243,4.0,6.0,69,0.00,,,0.00,VWS V14.01,2013-12-11 05:49:00,
2013-12-11 00:54:00,23.6,14.6,30.36,West,260,0.0,6.0,68,0.00,,,0.00,VWS V14.01,2013-12-11 05:54:00,
2013-12-11 00:59:00,23.8,14.8,30.36,WSW,246,3.0,5.0,68,0.00,,,0.00,VWS V14.01,2013-12-11 05:59:00,
2013-12-11 01:04:00,23.8,14.5,30.36,WSW,250,2.0,6.0,67,0.00,,,0.00,VWS V14.01,2013-12-11 06:04:00,
2013-12-11 01:09:00,23.6,14.6,30.36,SW,223,2.0,6.0,68,0.00,,,0.00,VWS V14.01,2013-12-11 06:09:00,
2013-12-11 01:14:00,23.4,14.4,30.37,SW,227,0.0,6.0,68,0.00,,,0.00,VWS V14.01,2013-12-11 06:14:00,
2013-12-11 01:19:00,23.2,14.6,30.36,SW,219,3.0,6.0,69,0.00,,,0.00,VWS V14.01,2013-12-11 06:19:00,
2013-12-11 01:24:00,23.3,14.6,30.37,WSW,241,4.0,6.0,69,0.00,,,0.00,VWS V14.01,2013-12-11 06:24:00,
2013-12-11 01:29:00,23.4,14.8,30.37,SW,223,0.0,0.0,69,0.00,,,0.00,VWS V14.01,2013-12-11 06:29:00,
2013-12-11 01:34:00,23.4,14.8,30.37,SSW,194,2.0,4.0,69,0.00,,,0.00,VWS V14.01,2013-12-11 06:34:00,
2013-12-11 01:39:00,23.2,14.6,30.37,SSW,205,0.0,4.0,69,0.00,,,0.00,VWS V14.01,2013-12-11 06:39:00,
2013-12-11 01:45:00,23.1,14.5,30.38,SW,214,0.0,4.0,69,0.00,,,0.00,VWS V14.01,2013-12-11 06:45:00,
2013-12-11 01:50:00,23.0,14.7,30.38,SSW,213,1.0,5.0,70,0.00,,,0.00,VWS V14.01,2013-12-11 06:50:00,
2013-12-11 01:55:00,23.0,14.7,30.38,SW,217,0.0,5.0,70,0.00,,,0.00,VWS V14.01,2013-12-11 06:55:00,
2013-12-11 02:00:00,22.9,14.6,30.38,SW,216,0.0,0.0,70,0.00,,,0.00,VWS V14.01,2013-12-11 07:00:00,
2013-12-11 02:05:00,23.0,14.7,30.39,SSW,209,2.0,8.0,70,0.00,,,0.00,VWS V14.01,2013-12-11 07:05:00,
2013-12-11 02:10:00,22.9,14.6,30.38,SW,231,3.0,8.0,70,0.00,,,0.00,VWS V14.01,2013-12-11 07:10:00,
2013-12-11 02:16:00,22.9,14.6,30.39,West,262,4.0,4.0,70,0.00,,,0.00,VWS V14.01,2013-12-11 07:16:00,
2013-12-11 02:21:00,23.0,14.7,30.39,SSW,194,4.0,8.0,70,0.00,,,0.00,VWS V14.01,2013-12-11 07:21:00,
2013-12-11 02:26:00,23.1,14.8,30.39,SW,228,3.0,8.0,70,0.00,,,0.00,VWS V14.01,2013-12-11 07:26:00,
2013-12-11 02:31:00,23.0,14.7,30.39,SW,219,2.0,4.0,70,0.00,,,0.00,VWS V14.01,2013-12-11 07:31:00,
2013-12-11 02:36:00,22.9,14.6,30.39,SSW,211,0.0,7.0,70,0.00,,,0.00,VWS V14.01,2013-12-11 07:36:00,
2013-12-11 02:41:00,22.8,14.5,30.39,SW,227,3.0,7.0,70,0.00,,,0.00,VWS V14.01,2013-12-11 07:41:00,
2013-12-11 02:46:00,22.7,14.4,30.39,SSW,213,1.0,7.0,70,0.00,,,0.00,VWS V14.01,2013-12-11 07:46:00,
2013-12-11 02:51:00,22.7,14.4,30.39,SW,217,4.0,10.0,70,0.00,,,0.00,VWS V14.01,2013-12-11 07:51:00,
2013-12-11 02:56:00,22.6,14.6,30.39,SW,214,0.0,10.0,71,0.00,,,0.00,VWS V14.01,2013-12-11 07:56:00,
2013-12-11 03:01:00,22.4,14.4,30.39,SW,219,2.0,7.0,71,0.00,,,0.00,VWS V14.01,2013-12-11 08:01:00,
2013-12-11 03:06:00,22.5,14.5,30.39,SSW,209,3.0,7.0,71,0.00,,,0.00,VWS V14.01,2013-12-11 08:06:00,
2013-12-11 03:11:00,22.5,14.5,30.39,SW,227,3.0,7.0,71,0.00,,,0.00,VWS V14.01,2013-12-11 08:11:00,
2013-12-11 03:16:00,22.4,14.4,30.40,SSW,207,0.0,7.0,71,0.00,,,0.00,VWS V14.01,2013-12-11 08:16:00,
2013-12-11 03:21:00,22.2,14.6,30.40,SSW,209,1.0,7.0,72,0.00,,,0.00,VWS V14.01,2013-12-11 08:21:00,
2013-12-11 03:27:00,22.2,14.6,30.40,SW,227,1.0,7.0,72,0.00,,,0.00,VWS V14.01,2013-12-11 08:27:00,
2013-12-11 03:32:00,22.3,14.3,30.40,SW,225,5.0,8.0,71,0.00,,,0.00,VWS V14.01,2013-12-11 08:32:00,
2013-12-11 03:37:00,22.4,14.4,30.40,SW,221,3.0,8.0,71,0.00,,,0.00,VWS V14.01,2013-12-11 08:37:00,
2013-12-11 03:42:00,22.1,14.5,30.40,SW,224,0.0,8.0,72,0.00,,,0.00,VWS V14.01,2013-12-11 08:42:00,
2013-12-11 03:47:00,22.0,14.7,30.40,SSW,212,0.0,8.0,73,0.00,,,0.00,VWS V14.01,2013-12-11 08:47:00,
2013-12-11 03:52:00,21.9,14.6,30.40,SSW,202,6.0,8.0,73,0.00,,,0.00,VWS V14.01,2013-12-11 08:52:00,
2013-12-11 03:57:00,21.8,14.5,30.40,SW,216,5.0,8.0,73,0.00,,,0.00,VWS V14.01,2013-12-11 08:57:00,
2013-12-11 04:02:00,21.9,14.6,30.41,SW,216,0.0,6.0,73,0.00,,,0.00,VWS V14.01,2013-12-11 09:02:00,
2013-12-11 04:07:00,21.9,14.6,30.41,SW,218,4.0,8.0,73,0.00,,,0.00,VWS V14.01,2013-12-11 09:07:00,
2013-12-11 04:12:00,22.0,14.4,30.41,SW,219,3.0,9.0,72,0.00,,,0.00,VWS V14.01,2013-12-11 09:12:00,
2013-12-11 04:17:00,21.9,14.6,30.41,SW,228,5.0,9.0,73,0.00,,,0.00,VWS V14.01,2013-12-11 09:17:00,
2013-12-11 04:22:00,21.7,14.4,30.41,South,174,0.0,9.0,73,0.00,,,0.00,VWS V14.01,2013-12-11 09:22:00,
2013-12-11 04:27:00,21.5,14.5,30.41,SSW,193,2.0,9.0,74,0.00,,,0.00,VWS V14.01,2013-12-11 09:27:00,
2013-12-11 04:32:00,21.6,14.6,30.41,WSW,240,4.0,6.0,74,0.00,,,0.00,VWS V14.01,2013-12-11 09:32:00,
2013-12-11 04:37:00,21.5,14.5,30.41,SSW,207,0.0,6.0,74,0.00,,,0.00,VWS V14.01,2013-12-11 09:37:00,
2013-12-11 04:42:00,21.4,14.4,30.42,SSW,200,0.0,6.0,74,0.00,,,0.00,VWS V14.01,2013-12-11 09:42:00,
2013-12-11 04:48:00,21.4,14.4,30.42,SSW,192,3.0,6.0,74,0.00,,,0.00,VWS V14.01,2013-12-11 09:48:00,
2013-12-11 04:53:00,21.4,14.4,30.42,SSW,212,0.0,7.0,74,0.00,,,0.00,VWS V14.01,2013-12-11 09:53:00,
2013-12-11 04:58:00,21.3,14.3,30.41,SSW,211,3.0,7.0,74,0.00,,,0.00,VWS V14.01,2013-12-11 09:58:00,
2013-12-11 05:03:00,21.4,14.4,30.42,SW,219,4.0,7.0,74,0.00,,,0.00,VWS V14.01,2013-12-11 10:03:00,
2013-12-11 05:08:00,21.2,14.2,30.42,SW,215,1.0,7.0,74,0.00,,,0.00,VWS V14.01,2013-12-11 10:08:00,
2013-12-11 05:13:00,21.1,14.4,30.42,SW,215,0.0,7.0,75,0.00,,,0.00,VWS V14.01,2013-12-11 10:13:00,
2013-12-11 05:18:00,21.2,14.5,30.42,SW,219,0.0,7.0,75,0.00,,,0.00,VWS V14.01,2013-12-11 10:18:00,
2013-12-11 05:23:00,21.0,14.3,30.42,SW,219,1.0,7.0,75,0.00,,,0.00,VWS V14.01,2013-12-11 10:23:00,
2013-12-11 05:28:00,20.9,14.2,30.41,SW,218,0.0,7.0,75,0.00,,,0.00,VWS V14.01,2013-12-11 10:28:00,
2013-12-11 05:33:00,20.8,14.4,30.42,SSW,210,4.0,4.0,76,0.00,,,0.00,VWS V14.01,2013-12-11 10:33:00,
2013-12-11 05:38:00,21.0,14.6,30.42,SSW,200,0.0,4.0,76,0.00,,,0.00,VWS V14.01,2013-12-11 10:38:00,
2013-12-11 05:43:00,20.9,14.5,30.42,SSW,206,0.0,4.0,76,0.00,,,0.00,VWS V14.01,2013-12-11 10:43:00,
2013-12-11 05:48:00,20.7,14.4,30.42,SSW,203,5.0,5.0,76,0.00,,,0.00,VWS V14.01,2013-12-11 10:48:00,
2013-12-11 05:53:00,20.8,14.4,30.42,SSW,200,1.0,5.0,76,0.00,,,0.00,VWS V14.01,2013-12-11 10:53:00,
2013-12-11 05:58:00,20.8,14.4,30.42,SSW,212,1.0,5.0,76,0.00,,,0.00,VWS V14.01,2013-12-11 10:58:00,
2013-12-11 06:04:00,20.8,14.4,30.42,SSW,211,0.0,6.0,76,0.00,,,0.00,VWS V14.01,2013-12-11 11:04:00,
2013-12-11 06:09:00,20.9,14.5,30.42,SW,221,0.0,7.0,76,0.00,,,0.00,VWS V14.01,2013-12-11 11:09:00,
2013-12-11 06:14:00,20.9,14.5,30.42,SSW,205,2.0,7.0,76,0.00,,,0.00,VWS V14.01,2013-12-11 11:14:00,
2013-12-11 06:19:00,20.9,14.5,30.42,SSW,203,3.0,7.0,76,0.00,,,0.00,VWS V14.01,2013-12-11 11:19:00,
2013-12-11 06:24:00,20.9,14.5,30.42,South,191,0.0,7.0,76,0.00,,,0.00,VWS V14.01,2013-12-11 11:24:00,
2013-12-11 06:29:00,20.9,14.5,30.42,South,191,3.0,4.0,76,0.00,,,0.00,VWS V14.01,2013-12-11 11:29:00,
2013-12-11 06:34:00,20.8,14.4,30.43,South,173,2.0,4.0,76,0.00,,,0.00,VWS V14.01,2013-12-11 11:34:00,
2013-12-11 06:39:00,20.7,14.6,30.43,South,189,0.0,5.0,77,0.00,,,0.00,VWS V14.01,2013-12-11 11:39:00,
2013-12-11 06:44:00,20.7,14.6,30.44,SSW,208,0.0,7.0,77,0.00,,,0.00,VWS V14.01,2013-12-11 11:44:00,
2013-12-11 06:49:00,20.6,14.6,30.44,SSW,206,4.0,7.0,77,0.00,,,0.00,VWS V14.01,2013-12-11 11:49:00,
2013-12-11 06:54:00,20.6,14.6,30.44,SSW,205,3.0,7.0,77,0.00,,,0.00,VWS V14.01,2013-12-11 11:54:00,
2013-12-11 06:59:00,20.5,14.4,30.44,SSW,206,2.0,5.0,77,0.00,,,0.00,VWS V14.01,2013-12-11 11:59:00,
2013-12-11 07:04:00,20.6,14.6,30.44,SSW,202,2.0,7.0,77,0.00,,,0.00,VWS V14.01,2013-12-11 12:04:00,
2013-12-11 07:09:00,20.7,14.6,30.44,SSW,198,3.0,7.0,77,0.00,,,0.00,VWS V14.01,2013-12-11 12:09:00,
2013-12-11 07:14:00,20.6,14.6,30.44,South,184,1.0,7.0,77,0.00,,,0.00,VWS V14.01,2013-12-11 12:14:00,
2013-12-11 07:20:00,20.6,14.6,30.44,SSW,204,1.0,8.0,77,0.00,,,0.00,VWS V14.01,2013-12-11 12:20:00,
2013-12-11 07:25:00,20.5,14.4,30.44,SSW,198,0.0,8.0,77,0.00,,,0.00,VWS V14.01,2013-12-11 12:25:00,
2013-12-11 07:30:00,20.3,14.3,30.44,SSW,198,0.0,2.0,77,0.00,,,0.00,VWS V14.01,2013-12-11 12:30:00,
2013-12-11 07:35:00,20.2,14.4,30.45,SSW,200,3.0,5.0,78,0.00,,,0.00,VWS V14.01,2013-12-11 12:35:00,
2013-12-11 07:40:00,20.3,14.6,30.44,South,181,3.0,5.0,78,0.00,,,0.00,VWS V14.01,2013-12-11 12:40:00,
2013-12-11 07:45:00,20.2,14.4,30.45,South,184,0.0,5.0,78,0.00,,,0.00,VWS V14.01,2013-12-11 12:45:00,
2013-12-11 07:50:00,20.1,14.4,30.44,South,185,0.0,5.0,78,0.00,,,0.00,VWS V14.01,2013-12-11 12:50:00,
2013-12-11 07:55:00,20.0,14.3,30.44,SSW,195,0.0,5.0,78,0.00,,,0.00,VWS V14.01,2013-12-11 12:55:00,
2013-12-11 08:00:00,20.1,14.4,30.44,South,182,0.0,3.0,78,0.00,,,0.00,VWS V14.01,2013-12-11 13:00:00,
2013-12-11 08:05:00,20.3,14.6,30.44,South,182,0.0,5.0,78,0.00,,,0.00,VWS V14.01,2013-12-11 13:05:00,
2013-12-11 08:11:00,20.4,14.6,30.44,South,169,1.0,7.0,78,0.00,,,0.00,VWS V14.01,2013-12-11 13:11:00,
2013-12-11 08:16:00,20.7,14.9,30.44,SSE,159,2.0,7.0,78,0.00,,,0.00,VWS V14.01,2013-12-11 13:16:00,
2013-12-11 08:21:00,20.8,15.0,30.44,SSW,198,3.0,7.0,78,0.00,,,0.00,VWS V14.01,2013-12-11 13:21:00,
2013-12-11 08:26:00,20.9,15.1,30.44,South,173,2.0,7.0,78,0.00,,,0.00,VWS V14.01,2013-12-11 13:26:00,
2013-12-11 08:31:00,21.1,15.3,30.44,South,173,1.0,6.0,78,0.00,,,0.00,VWS V14.01,2013-12-11 13:31:00,
2013-12-11 08:36:00,21.3,15.5,30.44,SSE,165,0.0,6.0,78,0.00,,,0.00,VWS V14.01,2013-12-11 13:36:00,
2013-12-11 08:41:00,21.5,15.4,30.44,South,180,6.0,7.0,77,0.00,,,0.00,VWS V14.01,2013-12-11 13:41:00,
2013-12-11 08:46:00,21.8,15.7,30.44,SSW,198,2.0,8.0,77,0.00,,,0.00,VWS V14.01,2013-12-11 13:46:00,
2013-12-11 08:51:00,22.0,15.9,30.44,SSE,163,2.0,8.0,77,0.00,,,0.00,VWS V14.01,2013-12-11 13:51:00,
2013-12-11 08:56:00,22.2,16.1,30.44,SSW,205,0.0,8.0,77,0.00,,,0.00,VWS V14.01,2013-12-11 13:56:00,
2013-12-11 09:01:00,22.4,16.3,30.44,SSW,205,0.0,5.0,77,0.00,,,0.00,VWS V14.01,2013-12-11 14:01:00,
2013-12-11 09:06:00,22.6,16.2,30.44,SSW,197,3.0,7.0,76,0.00,,,0.00,VWS V14.01,2013-12-11 14:06:00,
2013-12-11 09:11:00,22.9,16.2,30.44,South,181,2.0,8.0,75,0.00,,,0.00,VWS V14.01,2013-12-11 14:11:00,
2013-12-11 09:16:00,23.1,16.4,30.44,SSW,205,7.0,8.0,75,0.00,,,0.00,VWS V14.01,2013-12-11 14:16:00,
2013-12-11 09:22:00,23.3,16.6,30.44,SSW,197,2.0,8.0,75,0.00,,,0.00,VWS V14.01,2013-12-11 14:22:00,
2013-12-11 09:27:00,23.5,16.1,30.44,SSW,212,10.0,12.0,73,0.00,,,0.00,VWS V14.01,2013-12-11 14:27:00,
2013-12-11 09:32:00,23.6,16.2,30.44,SSW,207,2.0,9.0,73,0.00,,,0.00,VWS V14.01,2013-12-11 14:32:00,
2013-12-11 09:37:00,24.0,16.6,30.44,SSW,202,4.0,9.0,73,0.00,,,0.00,VWS V14.01,2013-12-11 14:37:00,
2013-12-11 09:42:00,24.3,16.9,30.44,SSW,212,3.0,9.0,73,0.00,,,0.00,VWS V14.01,2013-12-11 14:42:00,
2013-12-11 09:47:00,24.5,17.1,30.44,SSW,210,5.0,9.0,73,0.00,,,0.00,VWS V14.01,2013-12-11 14:47:00,
2013-12-11 09:52:00,24.7,17.0,30.44,SSE,163,7.0,10.0,72,0.00,,,0.00,VWS V14.01,2013-12-11 14:52:00,
2013-12-11 09:57:00,24.9,16.8,30.44,South,185,5.0,10.0,71,0.00,,,0.00,VWS V14.01,2013-12-11 14:57:00,
2013-12-11 10:02:00,24.9,16.8,30.44,SW,217,5.0,8.0,71,0.00,,,0.00,VWS V14.01,2013-12-11 15:02:00,
2013-12-11 10:07:00,25.2,16.8,30.44,SSW,198,3.0,10.0,70,0.00,,,0.00,VWS V14.01,2013-12-11 15:07:00,
2013-12-11 10:12:00,25.6,17.2,30.44,SSW,207,3.0,10.0,70,0.00,,,0.00,VWS V14.01,2013-12-11 15:12:00,
2013-12-11 10:17:00,26.0,17.2,30.44,SSW,206,2.0,10.0,69,0.00,,,0.00,VWS V14.01,2013-12-11 15:17:00,
2013-12-11 10:22:00,26.0,16.6,30.44,SSW,204,0.0,11.0,67,0.00,,,0.00,VWS V14.01,2013-12-11 15:22:00,
2013-12-11 10:27:00,26.1,16.0,30.44,SSW,212,6.0,11.0,65,0.00,,,0.00,VWS V14.01,2013-12-11 15:27:00,
2013-12-11 10:32:00,26.3,16.5,30.44,SW,227,3.0,10.0,66,0.00,,,0.00,VWS V14.01,2013-12-11 15:32:00,
2013-12-11 10:38:00,26.6,16.1,30.44,SW,226,6.0,15.0,64,0.00,,,0.00,VWS V14.01,2013-12-11 15:38:00,
2013-12-11 10:43:00,26.5,15.3,30.44,SW,223,6.0,15.0,62,0.00,,,0.00,VWS V14.01,2013-12-11 15:43:00,
2013-12-11 10:48:00,26.8,15.9,30.43,SW,223,3.0,15.0,63,0.00,,,0.00,VWS V14.01,2013-12-11 15:48:00,
2013-12-11 10:53:00,27.0,16.1,30.43,SSW,209,9.0,15.0,63,0.00,,,0.00,VWS V14.01,2013-12-11 15:53:00,
2013-12-11 10:58:00,26.8,15.9,30.43,SW,225,11.0,15.0,63,0.00,,,0.00,VWS V14.01,2013-12-11 15:58:00,
2013-12-11 11:03:00,26.7,16.2,30.43,SW,219,5.0,10.0,64,0.00,,,0.00,VWS V14.01,2013-12-11 16:03:00,
2013-12-11 11:08:00,26.8,16.6,30.43,South,188,4.0,10.0,65,0.00,,,0.00,VWS V14.01,2013-12-11 16:08:00,
2013-12-11 11:13:00,26.8,16.6,30.43,SW,217,4.0,10.0,65,0.00,,,0.00,VWS V14.01,2013-12-11 16:13:00,
2013-12-11 11:18:00,27.0,17.2,30.43,SW,232,6.0,10.0,66,0.00,,,0.00,VWS V14.01,2013-12-11 16:18:00,
2013-12-11 11:23:00,27.0,16.8,30.43,SW,225,0.0,10.0,65,0.00,,,0.00,VWS V14.01,2013-12-11 16:23:00,
2013-12-11 11:28:00,27.1,16.9,30.43,SSW,203,0.0,10.0,65,0.00,,,0.00,VWS V14.01,2013-12-11 16:28:00,
2013-12-11 11:33:00,27.1,16.6,30.42,WSW,251,5.0,9.0,64,0.00,,,0.00,VWS V14.01,2013-12-11 16:33:00,
2013-12-11 11:38:00,27.1,16.2,30.42,SW,219,5.0,9.0,63,0.00,,,0.00,VWS V14.01,2013-12-11 16:38:00,
2013-12-11 11:43:00,27.1,16.6,30.42,SW,220,0.0,9.0,64,0.00,,,0.00,VWS V14.01,2013-12-11 16:43:00,
2013-12-11 11:48:00,27.4,16.8,30.42,SSW,204,5.0,9.0,64,0.00,,,0.00,VWS V14.01,2013-12-11 16:48:00,
2013-12-11 11:53:00,27.7,17.1,30.42,SW,226,5.0,9.0,64,0.00,,,0.00,VWS V14.01,2013-12-11 16:53:00,
2013-12-11 11:59:00,27.9,16.6,30.42,SW,217,5.0,5.0,62,0.00,,,0.00,VWS V14.01,2013-12-11 16:59:00,
2013-12-11 12:04:00,28.1,16.4,30.41,SW,220,1.0,7.0,61,0.00,,,0.00,VWS V14.01,2013-12-11 17:04:00,
2013-12-11 12:09:00,28.3,17.0,30.41,SW,223,0.0,7.0,62,0.00,,,0.00,VWS V14.01,2013-12-11 17:09:00,
2013-12-11 12:14:00,28.6,16.9,30.40,SSW,211,4.0,7.0,61,0.00,,,0.00,VWS V14.01,2013-12-11 17:14:00,
2013-12-11 12:19:00,28.7,17.0,30.40,SW,233,3.0,8.0,61,0.00,,,0.00,VWS V14.01,2013-12-11 17:19:00,
2013-12-11 12:24:00,29.0,16.9,30.39,SSW,207,2.0,8.0,60,0.00,,,0.00,VWS V14.01,2013-12-11 17:24:00,
2013-12-11 12:29:00,29.0,16.9,30.38,SSW,209,1.0,3.0,60,0.00,,,0.00,VWS V14.01,2013-12-11 17:29:00,
2013-12-11 12:34:00,29.0,16.5,30.38,SSW,207,2.0,7.0,59,0.00,,,0.00,VWS V14.01,2013-12-11 17:34:00,
2013-12-11 12:39:00,29.4,16.5,30.38,South,191,8.0,10.0,58,0.00,,,0.00,VWS V14.01,2013-12-11 17:39:00,
2013-12-11 12:44:00,30.0,16.6,30.37,SSW,213,3.0,10.0,57,0.00,,,0.00,VWS V14.01,2013-12-11 17:44:00,
2013-12-11 12:49:00,30.3,16.5,30.37,South,184,3.0,10.0,56,0.00,,,0.00,VWS V14.01,2013-12-11 17:49:00,
2013-12-11 12:54:00,30.4,16.6,30.37,SSW,213,4.0,10.0,56,0.00,,,0.00,VWS V14.01,2013-12-11 17:54:00,
2013-12-11 12:59:00,30.5,15.9,30.36,WSW,248,6.0,8.0,54,0.00,,,0.00,VWS V14.01,2013-12-11 17:59:00,
2013-12-11 13:04:00,30.7,16.0,30.36,West,260,8.0,10.0,54,0.00,,,0.00,VWS V14.01,2013-12-11 18:04:00,
2013-12-11 13:10:00,30.9,16.2,30.36,WSW,246,5.0,10.0,54,0.00,,,0.00,VWS V14.01,2013-12-11 18:10:00,
2013-12-11 13:15:00,30.9,15.8,30.36,SW,227,6.0,10.0,53,0.00,,,0.00,VWS V14.01,2013-12-11 18:15:00,
2013-12-11 13:20:00,31.1,16.0,30.36,SW,231,0.0,10.0,53,0.00,,,0.00,VWS V14.01,2013-12-11 18:20:00,
2013-12-11 13:25:00,31.2,15.6,30.36,West,271,4.0,10.0,52,0.00,,,0.00,VWS V14.01,2013-12-11 18:25:00,
2013-12-11 13:30:00,31.5,16.4,30.36,WSW,254,0.0,6.0,53,0.00,,,0.00,VWS V14.01,2013-12-11 18:30:00,
2013-12-11 13:35:00,31.9,16.7,30.36,WSW,241,2.0,9.0,53,0.00,,,0.00,VWS V14.01,2013-12-11 18:35:00,
2013-12-11 13:40:00,31.6,15.6,30.35,SW,218,3.0,9.0,51,0.00,,,0.00,VWS V14.01,2013-12-11 18:40:00,
2013-12-11 13:45:00,32.1,17.3,30.35,SW,221,3.0,9.0,54,0.00,,,0.00,VWS V14.01,2013-12-11 18:45:00,
2013-12-11 13:50:00,32.6,17.4,30.34,West,279,5.0,9.0,53,0.00,,,0.00,VWS V14.01,2013-12-11 18:50:00,
2013-12-11 13:55:00,32.5,17.7,30.35,WSW,253,6.0,9.0,54,0.00,,,0.00,VWS V14.01,2013-12-11 18:55:00,
2013-12-11 14:00:00,32.3,17.1,30.34,West,263,3.0,7.0,53,0.00,,,0.00,VWS V14.01,2013-12-11 19:00:00,
2013-12-11 14:05:00,32.4,17.6,30.34,WSW,238,3.0,7.0,54,0.00,,,0.00,VWS V14.01,2013-12-11 19:05:00,
2013-12-11 14:10:00,32.7,17.9,30.34,West,269,3.0,8.0,54,0.00,,,0.00,VWS V14.01,2013-12-11 19:10:00,
2013-12-11 14:15:00,32.8,17.6,30.34,SSW,198,0.0,8.0,53,0.00,,,0.00,VWS V14.01,2013-12-11 19:15:00,
2013-12-11 14:20:00,32.8,17.1,30.34,WSW,238,1.0,8.0,52,0.01,,,0.01,VWS V14.01,2013-12-11 19:20:00,
2013-12-11 14:25:00,32.6,16.9,30.34,SW,215,4.0,8.0,52,0.01,,,0.01,VWS V14.01,2013-12-11 19:25:00,
2013-12-11 14:31:00,32.7,17.5,30.33,SW,223,0.0,6.0,53,0.01,,,0.01,VWS V14.01,2013-12-11 19:31:00,
2013-12-11 14:36:00,32.6,17.4,30.33,SSW,199,3.0,6.0,53,0.01,,,0.01,VWS V14.01,2013-12-11 19:36:00,
2013-12-11 14:41:00,32.3,16.7,30.33,WSW,244,3.0,7.0,52,0.01,,,0.01,VWS V14.01,2013-12-11 19:41:00,
2013-12-11 14:46:00,32.1,16.9,30.32,WSW,248,5.0,7.0,53,0.01,,,0.01,VWS V14.01,2013-12-11 19:46:00,
2013-12-11 14:51:00,32.1,17.3,30.32,SW,230,2.0,7.0,54,0.01,,,0.01,VWS V14.01,2013-12-11 19:51:00,
2013-12-11 14:56:00,32.2,17.4,30.32,SW,223,5.0,7.0,54,0.01,,,0.01,VWS V14.01,2013-12-11 19:56:00,
2013-12-11 15:01:00,32.2,16.6,30.32,WSW,255,4.0,5.0,52,0.01,,,0.01,VWS V14.01,2013-12-11 20:01:00,
2013-12-11 15:06:00,32.1,16.9,30.32,SSW,208,6.0,6.0,53,0.01,,,0.01,VWS V14.01,2013-12-11 20:06:00,
2013-12-11 15:11:00,32.1,16.9,30.32,SW,221,0.0,6.0,53,0.01,,,0.01,VWS V14.01,2013-12-11 20:11:00,
2013-12-11 15:16:00,32.1,16.5,30.32,SW,217,0.0,8.0,52,0.01,,,0.01,VWS V14.01,2013-12-11 20:16:00,
2013-12-11 15:21:00,32.0,16.8,30.32,SW,222,4.0,8.0,53,0.01,,,0.01,VWS V14.01,2013-12-11 20:21:00,
2013-12-11 15:26:00,32.0,16.8,30.32,SW,222,1.0,8.0,53,0.01,,,0.01,VWS V14.01,2013-12-11 20:26:00,
2013-12-11 15:31:00,32.0,17.2,30.32,SW,218,3.0,4.0,54,0.00,,,0.01,VWS V14.01,2013-12-11 20:31:00,
2013-12-11 15:36:00,31.9,16.3,30.32,SW,223,0.0,7.0,52,0.00,,,0.01,VWS V14.01,2013-12-11 20:36:00,
2013-12-11 15:42:00,31.9,16.7,30.32,SW,215,3.0,8.0,53,0.00,,,0.01,VWS V14.01,2013-12-11 20:42:00,
2013-12-11 15:47:00,31.9,16.7,30.32,SW,216,2.0,8.0,53,0.00,,,0.01,VWS V14.01,2013-12-11 20:47:00,
2013-12-11 15:52:00,31.9,16.3,30.32,SSW,208,3.0,8.0,52,0.00,,,0.01,VWS V14.01,2013-12-11 20:52:00,
2013-12-11 15:57:00,31.9,16.7,30.32,SW,215,0.0,8.0,53,0.00,,,0.01,VWS V14.01,2013-12-11 20:57:00,
2013-12-11 16:02:00,31.9,17.6,30.32,SW,215,0.0,0.0,55,0.00,,,0.01,VWS V14.01,2013-12-11 21:02:00,
2013-12-11 16:07:00,31.9,17.6,30.32,SW,217,0.0,2.0,55,0.00,,,0.01,VWS V14.01,2013-12-11 21:07:00,
2013-12-11 16:12:00,31.9,17.2,30.31,SW,215,0.0,4.0,54,0.00,,,0.01,VWS V14.01,2013-12-11 21:12:00,
2013-12-11 16:17:00,32.1,17.3,30.32,South,178,0.0,5.0,54,0.00,,,0.01,VWS V14.01,2013-12-11 21:17:00,
2013-12-11 16:22:00,32.2,17.4,30.32,South,186,0.0,5.0,54,0.00,,,0.01,VWS V14.01,2013-12-11 21:22:00,
2013-12-11 16:27:00,32.1,17.3,30.32,SSW,195,0.0,5.0,54,0.00,,,0.01,VWS V14.01,2013-12-11 21:27:00,
2013-12-11 16:32:00,32.0,16.8,30.31,SSW,196,2.0,4.0,53,0.00,,,0.01,VWS V14.01,2013-12-11 21:32:00,
2013-12-11 16:37:00,31.9,17.2,30.31,SSW,209,2.0,6.0,54,0.00,,,0.01,VWS V14.01,2013-12-11 21:37:00,
2013-12-11 16:42:00,31.7,17.0,30.31,South,190,2.0,7.0,54,0.00,,,0.01,VWS V14.01,2013-12-11 21:42:00,
2013-12-11 16:47:00,31.5,17.2,30.31,SW,225,3.0,7.0,55,0.00,,,0.01,VWS V14.01,2013-12-11 21:47:00,
2013-12-11 16:52:00,31.2,17.8,30.31,SW,227,0.0,7.0,57,0.00,,,0.01,VWS V14.01,2013-12-11 21:52:00,
2013-12-11 16:58:00,30.9,17.1,30.31,South,190,4.0,7.0,56,0.00,,,0.01,VWS V14.01,2013-12-11 21:58:00,
2013-12-11 17:03:00,30.8,17.0,30.31,SSW,202,0.0,4.0,56,0.00,,,0.01,VWS V14.01,2013-12-11 22:03:00,
2013-12-11 17:08:00,30.7,16.9,30.31,SSW,200,0.0,4.0,56,0.00,,,0.01,VWS V14.01,2013-12-11 22:08:00,
2013-12-11 17:13:00,30.6,16.8,30.31,SSW,200,1.0,4.0,56,0.00,,,0.01,VWS V14.01,2013-12-11 22:13:00,
2013-12-11 17:18:00,30.4,16.6,30.31,SW,217,2.0,9.0,56,0.00,,,0.01,VWS V14.01,2013-12-11 22:18:00,
2013-12-11 17:23:00,30.4,17.4,30.31,South,191,0.0,9.0,58,0.00,,,0.01,VWS V14.01,2013-12-11 22:23:00,
2013-12-11 17:28:00,30.1,16.7,30.31,South,191,0.0,9.0,57,0.00,,,0.01,VWS V14.01,2013-12-11 22:28:00,
2013-12-11 17:33:00,30.0,17.0,30.31,SSW,195,0.0,5.0,58,0.00,,,0.01,VWS V14.01,2013-12-11 22:33:00,
2013-12-11 17:38:00,30.1,17.1,30.31,SSW,196,6.0,6.0,58,0.00,,,0.01,VWS V14.01,2013-12-11 22:38:00,
2013-12-11 17:43:00,30.3,17.3,30.31,SSW,213,3.0,6.0,58,0.00,,,0.01,VWS V14.01,2013-12-11 22:43:00,
2013-12-11 17:48:00,30.3,17.3,30.31,SW,216,2.0,7.0,58,0.00,,,0.01,VWS V14.01,2013-12-11 22:48:00,
2013-12-11 17:53:00,30.1,17.1,30.31,SSW,213,1.0,7.0,58,0.00,,,0.01,VWS V14.01,2013-12-11 22:53:00,
2013-12-11 17:58:00,30.0,17.4,30.31,SSW,202,2.0,7.0,59,0.00,,,0.01,VWS V14.01,2013-12-11 22:58:00,
2013-12-11 18:03:00,30.1,17.1,30.31,South,190,0.0,6.0,58,0.00,,,0.01,VWS V14.01,2013-12-11 23:03:00,
2013-12-11 18:09:00,30.1,17.5,30.31,SSW,194,0.0,6.0,59,0.00,,,0.01,VWS V14.01,2013-12-11 23:09:00,
2013-12-11 18:14:00,30.1,17.5,30.31,SSW,196,2.0,6.0,59,0.00,,,0.01,VWS V14.01,2013-12-11 23:14:00,
2013-12-11 18:19:00,30.1,17.5,30.31,SSW,192,1.0,6.0,59,0.00,,,0.01,VWS V14.01,2013-12-11 23:19:00,
2013-12-11 18:24:00,30.0,17.4,30.31,SSW,194,0.0,6.0,59,0.00,,,0.01,VWS V14.01,2013-12-11 23:24:00,
2013-12-11 18:29:00,29.9,17.3,30.31,SSW,195,1.0,4.0,59,0.00,,,0.01,VWS V14.01,2013-12-11 23:29:00,
2013-12-11 18:34:00,29.9,17.3,30.31,SSW,195,2.0,4.0,59,0.00,,,0.01,VWS V14.01,2013-12-11 23:34:00,
2013-12-11 18:39:00,29.9,16.9,30.31,SSW,197,0.0,5.0,58,0.00,,,0.01,VWS V14.01,2013-12-11 23:39:00,
2013-12-11 18:44:00,29.9,17.3,30.31,SSW,202,2.0,5.0,59,0.00,,,0.01,VWS V14.01,2013-12-11 23:44:00,
2013-12-11 18:49:00,29.9,17.3,30.32,SSW,204,4.0,6.0,59,0.00,,,0.01,VWS V14.01,2013-12-11 23:49:00,
2013-12-11 18:54:00,30.1,17.1,30.32,SSW,200,3.0,6.0,58,0.00,,,0.01,VWS V14.01,2013-12-11 23:54:00,
2013-12-11 18:59:00,30.1,17.5,30.32,South,187,3.0,4.0,59,0.00,,,0.01,VWS V14.01,2013-12-11 23:59:00,
2013-12-11 19:05:00,30.2,17.6,30.32,SSW,203,5.0,6.0,59,0.00,,,0.01,VWS V14.01,2013-12-12 00:05:00,
2013-12-11 19:10:00,30.0,17.4,30.32,SSW,200,3.0,7.0,59,0.00,,,0.01,VWS V14.01,2013-12-12 00:10:00,
2013-12-11 19:15:00,29.9,17.7,30.32,SSW,205,2.0,7.0,60,0.00,,,0.01,VWS V14.01,2013-12-12 00:15:00,
2013-12-11 19:20:00,29.9,18.1,30.32,SSW,195,1.0,7.0,61,0.00,,,0.01,VWS V14.01,2013-12-12 00:20:00,
2013-12-11 19:25:00,29.8,18.4,30.32,SSW,195,0.0,7.0,62,0.00,,,0.01,VWS V14.01,2013-12-12 00:25:00,
2013-12-11 19:30:00,29.8,18.4,30.32,SSW,195,0.0,0.0,62,0.00,,,0.01,VWS V14.01,2013-12-12 00:30:00,
2013-12-11 19:35:00,29.9,18.5,30.32,SSW,196,0.0,5.0,62,0.00,,,0.01,VWS V14.01,2013-12-12 00:35:00,
2013-12-11 19:40:00,30.0,18.6,30.32,SW,214,0.0,5.0,62,0.00,,,0.01,VWS V14.01,2013-12-12 00:40:00,
2013-12-11 19:45:00,30.0,18.6,30.32,SSW,206,0.0,5.0,62,0.00,,,0.01,VWS V14.01,2013-12-12 00:45:00,
2013-12-11 19:50:00,29.9,18.9,30.32,SSW,206,0.0,5.0,63,0.00,,,0.01,VWS V14.01,2013-12-12 00:50:00,
2013-12-11 19:55:00,29.7,18.7,30.32,SSW,206,0.0,5.0,63,0.00,,,0.01,VWS V14.01,2013-12-12 00:55:00,
2013-12-11 20:00:00,29.6,18.6,30.32,SSW,206,0.0,2.0,63,0.00,,,0.01,VWS V14.01,2013-12-12 01:00:00,
2013-12-11 20:05:00,29.3,18.6,30.33,SSW,206,0.0,3.0,64,0.00,,,0.01,VWS V14.01,2013-12-12 01:05:00,
2013-12-11 20:11:00,29.2,18.5,30.33,SSW,206,0.0,3.0,64,0.00,,,0.01,VWS V14.01,2013-12-12 01:11:00,
2013-12-11 20:16:00,29.2,18.5,30.33,SW,215,0.0,3.0,64,0.00,,,0.01,VWS V14.01,2013-12-12 01:16:00,
2013-12-11 20:21:00,29.3,18.6,30.33,SW,215,0.0,3.0,64,0.00,,,0.01,VWS V14.01,2013-12-12 01:21:00,
2013-12-11 20:26:00,29.1,18.8,30.33,SW,215,0.0,3.0,65,0.00,,,0.01,VWS V14.01,2013-12-12 01:26:00,
2013-12-11 20:31:00,29.0,18.7,30.33,SW,215,0.0,0.0,65,0.00,,,0.01,VWS V14.01,2013-12-12 01:31:00,
2013-12-11 20:36:00,28.8,18.9,30.33,SW,215,0.0,0.0,66,0.00,,,0.01,VWS V14.01,2013-12-12 01:36:00,
2013-12-11 20:41:00,28.8,18.9,30.34,SW,216,0.0,3.0,66,0.00,,,0.01,VWS V14.01,2013-12-12 01:41:00,
2013-12-11 20:46:00,28.8,18.9,30.34,SW,216,0.0,3.0,66,0.00,,,0.01,VWS V14.01,2013-12-12 01:46:00,
2013-12-11 20:51:00,28.8,19.2,30.34,SW,216,0.0,3.0,67,0.00,,,0.01,VWS V14.01,2013-12-12 01:51:00,
2013-12-11 20:56:00,28.8,19.2,30.34,SW,216,0.0,3.0,67,0.00,,,0.01,VWS V14.01,2013-12-12 01:56:00,
2013-12-11 21:01:00,29.0,19.4,30.34,West,279,0.0,5.0,67,0.00,,,0.01,VWS V14.01,2013-12-12 02:01:00,
2013-12-11 21:06:00,29.3,19.7,30.34,WSW,250,0.0,5.0,67,0.00,,,0.01,VWS V14.01,2013-12-12 02:06:00,
2013-12-11 21:11:00,29.5,19.9,30.34,West,259,0.0,5.0,67,0.00,,,0.01,VWS V14.01,2013-12-12 02:11:00,
2013-12-11 21:16:00,29.6,19.6,30.35,SW,235,1.0,10.0,66,0.00,,,0.01,VWS V14.01,2013-12-12 02:16:00,
2013-12-11 21:21:00,29.7,20.1,30.35,West,277,7.0,10.0,67,0.00,,,0.01,VWS V14.01,2013-12-12 02:21:00,
2013-12-11 21:26:00,29.7,20.1,30.35,West,276,3.0,10.0,67,0.00,,,0.01,VWS V14.01,2013-12-12 02:26:00,
2013-12-11 21:32:00,29.7,20.1,30.35,WNW,302,6.0,7.0,67,0.00,,,0.01,VWS V14.01,2013-12-12 02:32:00,
2013-12-11 21:37:00,29.7,20.1,30.35,WNW,294,6.0,10.0,67,0.00,,,0.01,VWS V14.01,2013-12-12 02:37:00,
2013-12-11 21:42:00,29.7,20.5,30.35,WNW,298,7.0,13.0,68,0.00,,,0.01,VWS V14.01,2013-12-12 02:42:00,
2013-12-11 21:47:00,29.8,20.5,30.36,NW,320,16.0,16.0,68,0.00,,,0.01,VWS V14.01,2013-12-12 02:47:00,
2013-12-11 21:52:00,29.2,21.0,30.36,WNW,292,6.0,16.0,71,0.00,,,0.01,VWS V14.01,2013-12-12 02:52:00,
2013-12-11 21:57:00,28.5,21.3,30.36,West,273,8.0,16.0,74,0.00,,,0.01,VWS V14.01,2013-12-12 02:57:00,
2013-12-11 22:02:00,27.8,21.2,30.37,WNW,298,10.0,14.0,76,0.00,,,0.01,VWS V14.01,2013-12-12 03:02:00,
2013-12-11 22:07:00,27.4,21.5,30.37,WNW,298,9.0,18.0,78,0.00,,,0.01,VWS V14.01,2013-12-12 03:07:00,
2013-12-11 22:12:00,27.1,20.9,30.38,WNW,289,9.0,19.0,77,0.00,,,0.01,VWS V14.01,2013-12-12 03:12:00,
2013-12-11 22:17:00,27.0,20.8,30.38,West,281,7.0,19.0,77,0.00,,,0.01,VWS V14.01,2013-12-12 03:17:00,
2013-12-11 22:22:00,26.9,20.7,30.38,WNW,296,9.0,19.0,77,0.00,,,0.01,VWS V14.01,2013-12-12 03:22:00,
2013-12-11 22:27:00,26.7,20.5,30.39,West,280,9.0,19.0,77,0.00,,,0.01,VWS V14.01,2013-12-12 03:27:00,
2013-12-11 22:32:00,26.6,20.7,30.39,NW,308,6.0,12.0,78,0.00,,,0.01,VWS V14.01,2013-12-12 03:32:00,
2013-12-11 22:37:00,26.5,20.6,30.39,SW,229,3.0,12.0,78,0.00,,,0.01,VWS V14.01,2013-12-12 03:37:00,
2013-12-11 22:43:00,26.4,20.5,30.39,WNW,298,8.0,12.0,78,0.00,,,0.01,VWS V14.01,2013-12-12 03:43:00,
2013-12-11 22:48:00,26.4,20.5,30.40,West,280,4.0,12.0,78,0.00,,,0.01,VWS V14.01,2013-12-12 03:48:00,
2013-12-11 22:53:00,26.4,20.8,30.40,NW,305,8.0,12.0,79,0.00,,,0.01,VWS V14.01,2013-12-12 03:53:00,
2013-12-11 22:58:00,26.4,20.8,30.40,WNW,286,7.0,13.0,79,0.00,,,0.01,VWS V14.01,2013-12-12 03:58:00,
2013-12-11 23:03:00,25.9,20.6,30.41,NW,304,10.0,15.0,80,0.00,,,0.01,VWS V14.01,2013-12-12 04:03:00,
2013-12-11 23:08:00,25.1,20.4,30.41,NNW,330,7.0,20.0,82,0.00,,,0.01,VWS V14.01,2013-12-12 04:08:00,
2013-12-11 23:13:00,24.7,20.6,30.41,NNW,327,4.0,20.0,84,0.00,,,0.01,VWS V14.01,2013-12-12 04:13:00,
2013-12-11 23:18:00,24.4,20.3,30.41,NW,304,3.0,20.0,84,0.00,,,0.01,VWS V14.01,2013-12-12 04:18:00,
2013-12-11 23:23:00,24.3,20.2,30.42,WNW,282,12.0,20.0,84,0.00,,,0.01,VWS V14.01,2013-12-12 04:23:00,
2013-12-11 23:28:00,24.0,19.6,30.42,NNW,327,7.0,20.0,83,0.00,,,0.01,VWS V14.01,2013-12-12 04:28:00,
2013-12-11 23:33:00,23.8,18.2,30.42,NW,314,10.0,22.0,79,0.00,,,0.01,VWS V14.01,2013-12-12 04:33:00,
2013-12-11 23:38:00,23.6,18.1,30.43,WNW,302,10.0,22.0,79,0.00,,,0.01,VWS V14.01,2013-12-12 04:38:00,
2013-12-11 23:43:00,23.6,17.2,30.43,WNW,296,10.0,22.0,76,0.00,,,0.01,VWS V14.01,2013-12-12 04:43:00,
2013-12-11 23:48:00,23.5,16.1,30.43,WNW,288,3.0,22.0,73,0.00,,,0.01,VWS V14.01,2013-12-12 04:48:00,
2013-12-11 23:54:00,23.5,16.5,30.43,WNW,301,11.0,22.0,74,0.00,,,0.01,VWS V14.01,2013-12-12 04:54:00,
2013-12-11 23:59:00,23.4,16.0,30.43,WNW,284,5.0,5.0,73,0.00,,,0.00,VWS V14.01,2013-12-12 04:59:00,